Temperature
16 16 16 16 16 16 16 16 17 17 17 16 16 16 16 16 16 16 16 16 16 16 16 16 16 16 16 16 16 16 16 16 16 16 17 17 17 17 17 17 17 17 17
17 16 16 16 16 16 16 16 16 17 17 16 16 16 16 16 16 15 15 15 15 15 15 15 15 15 15 16 16 16 16 16 16 16 18 19 19 17 17 17 17 17 17
18 17 17 16 16 16 16 16 17 16 16 16 16 16 16 16 15 15 15 15 15 15 15 15 15 15 15 15 16 16 16 16 16 16 17 19 20 19 18 17 17 16 16
18 18 17 17 16 16 16 16 16 16 16 16 15 15 15 15 15 15 15 15 15 15 15 15 15 15 15 15 15 15 16 16 16 16 16 17 18 18 19 17 17 16 16
18 18 17 17 16 16 16 16 16 16 16 15 15 15 15 15 15 14 14 14 14 14 14 14 15 15 15 15 15 15 15 15 15 16 16 16 16 16 18 19 18 17 17
18 18 17 17 17 16 16 16 15 15 15 15 15 14 14 14 14 14 14 14 14 14 14 14 14 14 14 14 14 14 15 15 15 15 16 16 16 17 17 18 17 18 17
19 18 18 17 17 16 16 16 15 15 14 14 14 14 14 13 13 13 14 14 14 14 13 13 13 13 13 13 13 14 14 14 14 15 15 16 16 16 17 17 18 17 17
19 18 18 17 17 16 16 15 14 14 14 14 13 13 13 13 13 13 13 13 13 13 13 12 12 12 12 12 12 13 13 13 14 14 14 15 15 15 16 16 17 17 17
19 18 18 17 17 16 15 14 14 13 13 13 13 13 13 12 12 12 12 12 12 13 12 12 12 12 12 11 11 12 12 12 13 13 13 14 14 15 15 15 16 16 17
19 18 17 17 16 15 14 14 13 13 13 12 12 13 12 12 12 12 12 12 11 11 11 11 11 11 11 11 11 11 11 11 12 12 12 13 14 14 14 14 15 15 16
18 17 17 16 15 14 14 14 13 12 12 12 11 11 11 11 11 11 11 11 11 11 11 11 11 11 11 11 10 10 10 10 11 11 12 12 12 13 13 14 14 14 14
17 16 16 15 14 14 13 13 12 12 12 11 11 11 10 10 10 11 11 11 10 10 10 10 10 11 11 11 10 10 10 10 10 10 11 11 11 12 12 13 13 13 14
16 16 15 14 14 13 12 12 11 11 11 11 10 10 10 10 10 10 10 10 10 10 10 10 10 10 10 10 10 10 10 10 10 10 10 10 10 11 11 12 12 13 13
16 15 14 13 13 12 11 11 11 10 10 10 9 9 9 9 9 9 9 9 9 9 9 10 10 10 10 10 10 10 10 10 10 10 10 10 10 10 10 11 11 12 12
15 14 13 13 12 11 11 10 10 9 9 9 8 8 8 8 8 8 8 8 8 8 9 9 9 9 10 10 10 10 10 10 10 10 10 10 10 10 10 10 11 11 11
14 13 13 12 11 10 10 9 9 8 8 8 8 8 7 7 7 7 7 7 7 7 8 8 8 9 10 10 10 10 10 10 10 9 9 9 9 9 10 10 10 10 11
13 12 12 11 10 10 9 9 8 8 8 7 7 7 7 7 7 7 7 7 7 7 7 7 8 8 9 9 10 10 10 10 9 9 9 10 10 10 9 9 10 10 10
12 11 11 10 10 10 9 8 8 8 7 7 7 7 7 6 6 6 6 6 6 6 6 6 7 7 8 8 9 9 9 9 9 9 9 9 9 10 9 9 10 10 10
11 11 10 10 9 9 8 8 7 7 7 7 6 6 6 6 6 6 6 6 6 6 6 6 6 7 7 8 8 9 9 9 9 9 9 9 9 9 9 9 9 10 10
11 10 9 9 9 8 7 7 7 7 6 6 6 6 6 6 6 6 5 5 5 5 6 6 6 6 6 7 8 8 8 9 9 9 9 9 9 9 9 9 9 9 10
10 10 9 9 8 7 7 6 6 6 6 6 6 6 6 6 6 5 5 5 5 5 5 5 6 6 6 6 7 8 8 8 8 9 9 9 9 9 9 9 9 9 9
10 10 9 8 7 7 6 6 6 6 6 6 6 6 6 6 6 5 5 5 5 5 5 5 6 6 6 6 6 7 7 8 8 8 9 9 9 9 9 9 9 9 9
10 9 8 8 7 7 6 6 6 6 5 5 5 6 6 6 6 5 5 5 5 5 5 5 6 6 6 6 6 7 7 8 8 8 8 9 9 9 8 9 9 9 9
9 9 8 7 7 7 6 6 6 6 6 5 6 6 6 6 6 6 6 5 5 5 5 5 5 6 6 6 6 7 7 7 7 7 8 8 8 8 8 8 8 9 9
9 8 8 7 7 7 6 6 6 6 6 6 6 6 6 6 6 6 6 6 5 5 5 5 5 6 6 6 6 7 7 7 7 8 8 8 8 8 8 8 8 8 8
9 8 8 7 7 6 6 6 6 6 6 6 6 6 6 6 6 6 6 6 5 5 5 5 5 5 5 6 6 6 7 7 7 7 7 8 8 8 8 8 8 8 8
Wind_Speed
6 5 4 3 3 3 2 1 1 1 2 3 5 5 5 5 5 5 5 6 6 5 5 5 3 4 6 7 7 6 7 7 6 6 7 8 10 9 8 8 9 9 9
5 4 4 3 3 3 2 0 1 2 3 3 4 4 5 5 5 4 4 5 5 5 4 4 4 5 5 6 6 6 6 6 6 6 6 6 7 6 8 7 7 7 7
4 4 4 3 3 2 1 1 2 3 4 5 5 4 4 5 4 4 4 4 4 4 4 5 5 5 6 6 7 7 9 7 6 7 7 6 4 3 6 6 6 6 6
3 2 2 1 1 1 1 2 3 4 5 6 6 6 6 6 5 4 4 4 4 4 5 5 5 6 7 7 7 8 7 8 9 8 8 8 5 4 4 7 7 7 7
1 0 1 1 2 3 3 4 4 5 5 6 7 8 8 7 6 5 4 5 4 4 4 4 4 5 6 7 7 7 9 9 10 9 8 8 7 8 6 5 6 7 7
2 3 3 4 5 5 6 6 7 7 7 8 9 9 10 10 9 8 7 6 5 4 4 4 4 4 4 5 6 8 10 11 11 10 9 8 8 8 8 7 7 6 5
4 5 6 7 8 9 9 9 10 10 10 11 11 11 11 11 11 11 9 8 7 6 4 4 4 5 4 5 6 7 9 10 11 11 10 10 9 8 8 8 7 6 5
6 7 8 9 10 11 11 11 11 11 12 12 12 12 13 12 12 11 12 11 9 9 6 6 6 6 6 6 6 6 7 7 9 12 12 10 10 8 8 8 7 7 7
8 9 10 11 12 12 11 11 12 13 13 14 13 13 14 14 14 14 13 14 11 11 10 10 9 8 7 7 7 7 7 7 8 9 10 10 9 9 9 8 8 8 8
10 12 12 12 12 12 12 13 14 15 15 15 15 14 14 15 14 15 16 15 14 14 13 13 12 11 10 9 9 8 8 8 8 7 8 8 8 8 8 9 9 8 8
13 13 13 13 13 14 15 15 15 16 16 16 15 16 16 17 17 16 17 16 15 15 15 15 15 14 13 11 10 10 10 10 10 9 9 9 8 7 7 8 8 9 9
14 15 15 14 15 16 16 17 17 17 17 17 17 17 17 17 18 18 18 17 16 16 17 16 16 16 15 14 13 13 12 11 11 11 10 9 7 9 8 7 8 8 8
16 16 15 15 16 17 17 18 18 19 18 18 18 18 19 19 19 19 18 18 17 17 17 17 17 17 17 16 15 14 13 13 12 11 11 11 10 10 8 8 8 7 8
16 16 16 16 17 18 18 18 19 19 19 19 19 19 19 19 19 19 19 18 18 18 18 18 18 18 18 18 17 16 15 14 13 12 12 11 12 12 10 9 10 9 8
17 17 17 18 18 19 18 18 19 19 19 19 19 19 19 19 19 19 19 18 18 19 18 18 18 18 17 17 18 16 16 16 15 13 13 13 11 9 9 9 9 10 9
18 18 19 19 19 19 19 19 19 18 18 19 19 19 19 19 19 18 18 18 17 17 17 17 18 18 17 15 15 15 16 15 15 14 13 13 12 12 12 12 11 10 11
19 20 20 19 19 19 18 18 18 18 18 19 19 19 19 19 19 19 18 18 17 17 16 17 17 17 17 12 14 16 16 16 15 14 13 12 12 13 12 14 16 15 15
19 19 19 19 19 19 19 18 18 18 18 19 18 18 19 19 18 18 18 17 15 15 14 15 16 15 15 13 15 15 17 17 16 15 15 14 12 11 11 12 13 14 15
18 18 19 19 19 19 18 18 18 18 18 18 18 18 18 19 18 18 17 16 14 14 13 13 13 14 13 13 14 14 14 15 17 16 16 15 14 10 9 11 12 13 13
17 17 18 18 18 17 18 18 18 18 18 18 18 18 18 18 18 18 16 14 13 13 12 12 12 13 13 13 15 15 13 14 14 14 14 13 12 8 11 12 13 13 12
18 17 17 17 16 17 17 17 17 17 17 18 18 18 18 17 17 15 13 13 12 12 11 11 10 11 11 12 15 16 13 13 13 12 12 11 15 12 11 11 12 11 9
18 17 16 16 16 16 16 17 16 17 17 17 17 18 17 16 13 13 13 12 11 10 10 9 9 8 9 10 13 17 16 12 12 11 10 7 14 13 11 10 9 7 8
17 16 16 17 16 15 15 16 16 16 16 16 17 16 16 14 13 12 11 10 8 7 7 7 7 7 7 8 12 16 16 14 11 9 3 5 10 9 10 12 9 8 9
16 16 16 17 17 16 15 14 15 15 15 16 16 15 14 13 12 10 8 7 6 6 6 6 6 6 6 7 8 11 12 12 12 11 8 9 8 8 6 6 9 9 9
15 15 15 16 17 16 16 15 14 14 14 15 14 13 12 11 10 9 6 7 6 5 5 5 4 4 4 3 5 7 9 10 10 10 9 9 9 9 9 8 8 8 9
16 16 16 16 17 16 16 15 14 14 13 12 12 11 10 9 9 8 6 2 3 4 3 4 5 2 3 5 4 3 2 3 5 7 9 9 9 9 9 9 8 8 8
Wind_Direction
71 70 70 77 93 95 93 76 338 301 283 286 291 292 294 295 294 293 293 293 290 287 279 280 254 238 242 244 246 243 235 237 238 249 252 243 237 238 241 238 241 232 232
85 79 82 88 93 98 99 148 282 295 290 289 285 285 293 293 297 304 302 300 303 298 284 278 265 251 250 246 248 244 253 245 222 240 254 247 219 217 224 220 222 228 219
87 84 83 83 87 86 57 360 328 310 301 297 288 286 274 277 289 299 300 303 304 302 297 287 277 266 258 250 241 241 238 244 235 232 246 254 248 195 190 208 212 211 224
95 89 88 68 40 8 339 322 304 301 299 294 300 304 306 309 310 306 314 313 310 311 313 306 287 272 264 258 249 239 242 241 241 224 235 256 293 263 203 194 194 204 219
146 190 263 310 313 307 304 301 299 297 294 293 294 292 297 303 302 303 304 305 311 306 309 309 303 291 281 273 263 257 245 238 242 239 225 222 223 238 254 219 195 202 212
257 263 270 280 290 294 293 294 295 293 292 291 293 290 294 294 295 291 291 286 289 292 298 297 293 285 283 279 270 260 247 245 244 246 241 227 221 222 226 228 221 220 215
276 279 286 293 296 296 297 299 299 297 295 290 287 285 283 282 277 279 280 277 281 278 270 280 278 278 276 275 272 266 267 254 246 240 240 239 238 237 233 235 230 227 221
288 290 295 297 298 300 303 305 306 305 302 296 291 285 281 278 278 275 280 279 278 278 272 253 251 257 260 260 259 263 259 263 259 250 246 244 240 237 235 237 237 232 227
306 304 305 306 307 308 309 310 309 305 302 300 297 287 282 280 282 281 271 270 267 267 258 249 245 243 242 248 253 258 256 252 254 260 255 248 245 237 233 233 236 239 241
315 317 316 314 315 312 310 309 306 303 302 299 296 293 291 285 279 275 277 276 274 268 262 254 249 245 241 237 242 253 250 249 246 247 252 250 253 246 236 230 230 233 244
320 320 317 315 313 311 310 310 309 306 302 300 298 295 291 289 285 278 273 270 266 265 259 254 250 246 243 238 235 246 248 248 249 243 243 244 244 247 241 233 229 228 230
316 316 316 315 312 312 313 311 309 306 303 301 298 294 292 289 285 281 278 274 268 261 257 254 251 248 244 239 235 238 243 243 245 242 239 242 240 242 240 236 232 229 227
318 317 316 315 313 313 312 310 308 306 305 303 300 297 294 290 286 284 280 275 270 263 259 254 250 248 246 241 236 236 239 240 243 241 237 236 233 235 236 233 231 229 228
318 317 317 314 314 312 311 309 307 307 305 303 300 297 294 292 289 286 283 277 271 265 258 253 248 246 243 240 237 233 234 236 239 240 239 238 233 231 229 231 229 226 225
319 319 317 316 315 313 311 309 308 308 307 303 299 297 296 294 291 288 285 281 275 268 261 255 249 244 241 237 233 233 232 231 234 235 236 238 237 239 233 238 230 222 221
321 320 318 317 315 314 311 310 309 308 305 301 300 299 298 295 291 288 285 281 276 272 267 260 252 246 241 228 213 225 235 231 231 233 233 234 224 224 223 236 242 238 229
321 319 318 316 315 313 313 310 309 307 304 301 299 299 297 295 293 291 288 284 279 274 268 261 253 246 243 230 204 212 231 234 231 231 231 235 228 212 226 220 220 229 236
319 319 317 316 315 316 315 312 310 307 305 303 303 303 302 299 297 293 289 285 281 275 271 263 256 249 241 218 207 206 224 234 232 230 229 232 240 230 229 234 227 225 223
318 317 317 316 317 316 316 314 310 309 308 307 308 308 306 303 299 294 290 288 283 275 268 262 256 248 240 212 199 203 225 229 231 229 228 228 231 216 204 236 241 236 230
320 319 317 316 317 319 318 313 310 310 309 310 309 307 303 300 297 294 291 287 281 275 269 262 254 246 239 213 194 202 225 229 228 226 227 221 230 203 187 228 238 237 233
320 319 318 318 319 318 315 310 310 309 311 310 307 305 303 300 297 295 291 286 280 274 270 264 256 246 238 216 193 198 222 227 225 225 221 219 188 196 196 226 243 246 248
322 322 321 320 319 317 314 311 311 311 311 310 307 306 306 305 303 300 295 288 282 276 271 262 252 241 228 220 199 196 215 236 227 228 228 206 163 182 197 219 239 249 252
322 323 323 320 318 319 318 313 312 313 312 309 307 307 307 308 307 303 300 296 285 275 272 262 250 238 225 204 192 194 206 220 231 230 210 129 149 179 208 220 222 226 231
323 326 324 320 319 320 319 315 313 313 312 310 309 310 310 310 311 308 306 304 297 288 280 274 261 243 224 208 195 196 199 204 219 226 191 169 174 220 247 207 205 222 225
324 325 322 319 318 320 319 318 318 316 313 311 310 312 314 314 314 316 319 318 321 324 306 297 290 271 234 187 171 195 199 202 206 206 209 212 207 212 216 217 213 213 211
323 323 324 321 320 321 320 321 322 321 315 313 315 316 317 319 322 326 332 6 340 359 332 313 313 323 80 105 130 151 152 141 165 203 212 214 215 216 216 212 209 208 206
Height
1514 1513 1512 1512 1512 1512 1512 1512 1512 1512 1512 1512 1511 1510 1508 1506 1504 1502 1499 1498 1496 1495 1494 1492 1492 1494 1496 1498 1501 1503 1504 1506 1508 1509 1510 1510 1510 1511 1511 1512 1514 1515 1517
1516 1515 1514 1514 1513 1512 1512 1512 1512 1511 1511 1510 1509 1507 1505 1504 1502 1500 1497 1495 1493 1492 1491 1490 1490 1491 1493 1494 1496 1498 1500 1503 1504 1506 1508 1507 1508 1506 1508 1508 1510 1512 1514
1516 1516 1516 1515 1514 1513 1512 1512 1511 1510 1510 1509 1508 1506 1503 1501 1500 1498 1495 1493 1491 1490 1489 1488 1488 1489 1490 1491 1492 1494 1497 1499 1501 1503 1505 1504 1502 1504 1505 1505 1507 1509 1510
1517 1517 1516 1515 1515 1513 1512 1511 1510 1509 1508 1507 1506 1505 1503 1501 1499 1496 1494 1491 1490 1488 1487 1487 1487 1487 1488 1488 1489 1492 1493 1495 1498 1499 1500 1501 1501 1502 1502 1504 1504 1505 1506
1517 1517 1516 1515 1514 1513 1512 1510 1509 1507 1506 1504 1503 1501 1500 1499 1497 1494 1492 1489 1488 1486 1485 1484 1484 1484 1484 1485 1486 1487 1489 1491 1494 1496 1496 1497 1498 1499 1500 1500 1502 1503 1504
1516 1516 1515 1514 1513 1512 1511 1509 1507 1506 1504 1502 1500 1499 1497 1495 1494 1492 1490 1488 1486 1484 1483 1481 1480 1480 1480 1481 1481 1482 1484 1486 1488 1490 1492 1493 1494 1495 1496 1497 1499 1500 1501
1515 1514 1514 1512 1511 1510 1508 1507 1504 1502 1500 1499 1497 1495 1493 1491 1490 1488 1487 1485 1483 1482 1479 1478 1477 1477 1476 1476 1477 1477 1479 1480 1482 1483 1486 1488 1489 1491 1492 1494 1494 1495 1497
1513 1512 1511 1510 1509 1507 1505 1503 1500 1498 1496 1494 1492 1490 1488 1487 1485 1484 1482 1481 1479 1478 1476 1474 1473 1472 1472 1472 1472 1472 1472 1474 1475 1477 1479 1481 1483 1485 1487 1489 1490 1491 1493
1511 1510 1509 1507 1505 1503 1501 1499 1496 1494 1491 1489 1487 1484 1482 1480 1479 1477 1476 1475 1474 1473 1471 1470 1469 1468 1468 1467 1467 1467 1467 1468 1468 1470 1472 1474 1477 1479 1481 1483 1485 1488 1488
1509 1508 1506 1504 1502 1500 1498 1495 1492 1489 1486 1483 1481 1479 1477 1474 1472 1470 1469 1468 1467 1466 1465 1465 1464 1464 1463 1462 1462 1462 1462 1462 1462 1463 1465 1466 1469 1472 1474 1477 1479 1481 1484
1507 1505 1503 1501 1499 1496 1493 1490 1487 1483 1480 1477 1474 1471 1469 1467 1465 1463 1461 1460 1459 1459 1458 1458 1458 1458 1458 1457 1457 1457 1457 1457 1458 1458 1458 1459 1462 1464 1467 1470 1472 1475 1478
1505 1503 1500 1497 1495 1492 1488 1485 1481 1478 1474 1471 1467 1464 1461 1459 1456 1455 1453 1451 1450 1450 1450 1450 1450 1450 1451 1451 1451 1452 1452 1453 1453 1453 1454 1454 1456 1458 1460 1463 1465 1468 1471
1501 1499 1496 1494 1491 1487 1483 1480 1476 1472 1468 1464 1460 1457 1453 1451 1448 1445 1444 1442 1441 1440 1440 1441 1441 1442 1443 1444 1445 1446 1446 1447 1448 1448 1449 1449 1451 1452 1454 1456 1459 1462 1465
1498 1495 1493 1490 1486 1482 1478 1474 1470 1466 1461 1457 1453 1449 1445 1442 1439 1436 1434 1432 1431 1430 1430 1431 1431 1433 1434 1436 1437 1439 1440 1441 1442 1443 1444 1444 1446 1447 1448 1450 1453 1456 1459
1494 1492 1489 1485 1481 1477 1473 1468 1464 1459 1455 1450 1446 1442 1438 1434 1431 1428 1425 1423 1421 1420 1420 1420 1421 1423 1425 1426 1428 1431 1433 1434 1435 1437 1438 1440 1440 1441 1443 1446 1447 1450 1452
1491 1488 1484 1480 1476 1472 1467 1462 1457 1453 1448 1443 1439 1434 1430 1426 1422 1419 1416 1413 1411 1410 1409 1409 1410 1412 1415 1417 1419 1423 1425 1427 1429 1430 1432 1434 1435 1436 1437 1440 1442 1444 1447
1488 1484 1480 1476 1471 1466 1461 1456 1451 1447 1442 1437 1432 1427 1423 1418 1414 1411 1407 1404 1402 1400 1399 1399 1400 1401 1404 1407 1410 1414 1417 1420 1422 1424 1426 1428 1430 1431 1433 1434 1436 1438 1440
1485 1480 1476 1471 1466 1461 1456 1451 1446 1441 1436 1431 1425 1421 1416 1411 1406 1402 1398 1395 1393 1391 1389 1389 1390 1391 1394 1398 1401 1405 1409 1412 1415 1417 1419 1421 1424 1426 1428 1430 1431 1433 1434
1481 1477 1472 1466 1461 1456 1451 1446 1440 1435 1430 1425 1419 1414 1409 1403 1398 1394 1390 1387 1384 1382 1381 1380 1381 1382 1385 1389 1393 1397 1401 1404 1407 1410 1413 1415 1417 1419 1421 1423 1426 1427 1430
1477 1472 1467 1462 1457 1451 1446 1440 1435 1430 1424 1419 1413 1407 1402 1396 1391 1386 1382 1379 1376 1374 1373 1373 1373 1374 1377 1381 1384 1389 1393 1397 1400 1403 1405 1408 1411 1413 1415 1417 1420 1422 1424
1473 1468 1463 1458 1452 1447 1441 1435 1430 1424 1419 1413 1407 1401 1396 1390 1384 1379 1375 1372 1370 1368 1367 1366 1366 1367 1370 1373 1377 1381 1386 1390 1393 1396 1399 1402 1404 1406 1408 1411 1413 1416 1418
1469 1464 1459 1453 1448 1442 1437 1431 1425 1419 1413 1408 1402 1396 1390 1385 1380 1374 1370 1367 1364 1362 1361 1360 1361 1362 1363 1366 1370 1374 1379 1384 1387 1391 1394 1397 1398 1401 1403 1405 1407 1410 1412
1466 1461 1455 1449 1444 1439 1433 1426 1420 1414 1408 1403 1397 1391 1386 1380 1375 1370 1366 1362 1360 1358 1356 1356 1356 1357 1359 1361 1364 1369 1373 1378 1382 1386 1389 1391 1393 1396 1397 1399 1401 1404 1406
1462 1457 1452 1446 1440 1434 1429 1423 1416 1410 1404 1398 1393 1387 1382 1376 1371 1367 1363 1360 1357 1355 1353 1353 1353 1354 1355 1357 1360 1364 1368 1372 1376 1380 1383 1386 1388 1391 1393 1394 1395 1397 1400
1459 1454 1448 1442 1436 1430 1424 1418 1412 1406 1401 1395 1390 1384 1379 1374 1369 1365 1361 1357 1355 1353 1352 1351 1351 1352 1353 1354 1357 1360 1365 1369 1372 1376 1379 1381 1384 1385 1387 1389 1391 1392 1395
1456 1451 1445 1439 1433 1427 1421 1415 1409 1403 1397 1392 1387 1382 1377 1372 1367 1363 1359 1356 1354 1351 1350 1350 1350 1350 1352 1353 1356 1359 1363 1366 1369 1372 1374 1377 1378 1380 1382 1384 1385 1387 1390